Regional Weather Roundup
Issued by NWS

Home | Current Version | Previous Version | Text Only | Print | Product List | Glossary On
Versions: 1 2 3 4 5 6 7 8 9 10 11 12 13 14 15 16 17 18 19 20 21 22 23 24 25 26 27 28 29 30 31 32 33 34 35 36 37 38 39 40 41 42 43 44 45 46 47 48 49 50
000
ASUS43 KLSX 300110
RWRMO

WEATHER SUMMARY FOR MISSOURI
NATIONAL WEATHER SERVICE SPRINGFIELD MO
800 PM CDT SUN MAY 29 2016

NOTE: "FAIR" INDICATES FEW OR NO CLOUDS BELOW 12,000 FEET WITH NO
       SIGNIFICANT WEATHER AND/OR OBSTRUCTIONS TO VISIBILITY.
       CURRENT SKY AND/OR WEATHER CONDITIONS ARE NOT AVAILABLE FOR
       CHILLICOTHE AND FARMINGTON.

MOZ001>031-035>038-043-044-053-054-300200-
...NORTHERN AND WESTERN MISSOURI...

CITY           SKY/WX    TMP DP  RH WIND       PRES   REMARKS
KANSAS CTY INT CLOUDY    74  66  76 S6        30.03F
KANSAS C DTWN  PTCLDY    78  61  55 S7        30.02S
LEE`S SUMMIT   CLOUDY    79  58  48 S6        30.05R
ST JOSEPH      CLOUDY    79  62  56 S7        30.01S
CHILLICOTHE      N/A     78  69  73 S3        30.03R
KIRKSVILLE     CLOUDY    78  62  57 CALM      30.04R

$$
MOZ066>068-077>081-088>096-101>105-300200-
...SOUTHWEST MISSOURI...

CITY           SKY/WX    TMP DP  RH WIND       PRES   REMARKS
SPRINGFIELD    CLOUDY    78  62  57 E3        30.08R
JOPLIN         MOCLDY    76  68  76 E3        30.05F
BRANSON        MOCLDY    77  63  61 CALM      30.11R

$$
MOZ032>034-039>042-045>050-055>058-069>072-300200-
...CENTRAL MISSOURI...

CITY           SKY/WX    TMP DP  RH WIND       PRES   REMARKS
COLUMBIA       CLOUDY    79  64  60 S3        30.05S
JEFFERSON CITY CLOUDY    81  64  56 SE3       30.04S
ROLLA          CLOUDY    76  64  66 CALM      30.06S
SEDALIA        CLEAR     79  62  56 S5        30.06R
WHITEMAN AFB   CLEAR     77  65  65 S6        30.04S
WARRENSBURG    CLEAR     79  63  57 S3        30.04S

$$
MOZ051-052-059>065-300200-
...EAST CENTRAL MISSOURI...

CITY           SKY/WX    TMP DP  RH WIND       PRES   REMARKS
ST LOUIS INTL  MOCLDY    81  59  47 N5        30.05S
SPIRIT OF STL  CLEAR     77  65  66 CALM      30.03S
ST CHARLES     CLEAR     80  62  54 CALM      30.03S

$$
MOZ072>076-082>087-097>100-106>115-300200-
...SOUTH CENTRAL AND SOUTHEAST MISSOURI...

CITY           SKY/WX    TMP DP  RH WIND       PRES   REMARKS
CAPE GIRARDEAU PTCLDY    80  67  64 CALM      30.03F
FARMINGTON     CLOUDY    76  65  68 CALM      30.08F
POPLAR BLUFF   CLOUDY    79  67  66 NW5       30.04S
WEST PLAINS    CLEAR     75  64  68 CALM      30.10S

$$




USA.gov is the U.S. government's official web portal to all federal, state and local government web resources and services.